This is the latest recevied weather packets stored in our database for station/object HB9FHL-13. If no packets are shown the sender has not sent any weather packets the latest 10 day(s).
| Time | Temp. | Humidity | Pressure | Rain* | Wind** | Luminosity | Snow |
|---|---|---|---|---|---|---|---|
| 1788145855 | 18.33° C | - | 1018.7 hPa | 3.3 mm | - | - | - |
| 1788145555 | 18.89° C | - | 1018.6 hPa | 3.3 mm | - | - | - |
| 1788145254 | 18.89° C | - | 1021.6 hPa | 3.3 mm | - | - | - |
| 1788144953 | 18.33° C | - | 1022.3 hPa | 3.3 mm | - | - | - |
| 1788144737 | 17.78° C | - | 1014.3 hPa | 3.3 mm | - | - | - |
| 1788144653 | 17.78° C | - | 1014.3 hPa | 3.3 mm | - | - | - |
| 1788144353 | 18.33° C | - | 1015.2 hPa | 3.3 mm | - | - | - |
| 1788144103 | 18.89° C | - | 1019.3 hPa | 3.3 mm | - | - | - |
| 1788144052 | 18.89° C | - | 1019.3 hPa | 3.3 mm | - | - | - |
| 1788143752 | 18.89° C | - | 1021.3 hPa | 3.3 mm | - | - | - |
| 1788143451 | 18.89° C | - | 1017.3 hPa | 3.3 mm | - | - | - |
| 1788143240 | 17.78° C | - | 1021.7 hPa | 3.3 mm | - | - | - |
| 1788143151 | 17.78° C | - | 1021.7 hPa | 3.3 mm | - | - | - |
| 1788142887 | 18.89° C | - | 1018.4 hPa | 3.3 mm | - | - | - |
| 1788142850 | 18.89° C | - | 1018.4 hPa | 3.3 mm | - | - | - |
| 1788142598 | 19.44° C | - | 1018.7 hPa | 3.3 mm | - | - | - |
| 1788142550 | 19.44° C | - | 1018.7 hPa | 3.3 mm | - | - | - |
| 1788142336 | 18.33° C | - | 1021.7 hPa | 3.3 mm | - | - | - |
| 1788142249 | 18.33° C | - | 1021.7 hPa | 3.3 mm | - | - | - |
| 1788141949 | 18.89° C | - | 1010.8 hPa | 3.3 mm | - | - | - |
| 1788141648 | 18.89° C | - | 1014.3 hPa | 3.3 mm | - | - | - |
| 1788141347 | 18.33° C | - | 1016.1 hPa | 3.3 mm | - | - | - |
| 1788141046 | 18.89° C | - | 1023 hPa | 3.3 mm | - | - | - |
| 1788140746 | 19.44° C | - | 1009.3 hPa | 3.3 mm | - | - | - |
| 1788140532 | 18.89° C | - | 1014.9 hPa | 3.3 mm | - | - | - |
* Rain since midnight (hover to see other rain measurements)
** Current wind speed in m/s (hover to see current wind gust speed)